When you browse on this site, cookies collect data to enhance your experience and personalize the content and advertising you see.
Visit our Privacy Policy to learn more. By continuing to use the site, you agree to this use of cookies and data.
EN

Hourly Weather Krym

Today, 9 July, Thursday

Time Temperature Precipitation Wind Pressure Humidity
00:00 +23°C° 0 mm 4 mps 751 mmHg 89%
01:00 +23°C° 0 mm 5 mps 751 mmHg 88%
02:00 +22°C° 0 mm 5 mps 751 mmHg 87%
03:00 +22°C° 0 mm 4 mps 752 mmHg 89%
04:00 +22°C° 0 mm 4 mps 753 mmHg 88%
05:00 +22°C° 0 mm 5 mps 753 mmHg 86%
06:00 +21°C° 0 mm 5 mps 753 mmHg 85%
07:00 +22°C° 0 mm 5 mps 754 mmHg 79%
08:00 +23°C° 0 mm 5 mps 754 mmHg 74%
09:00 +25°C° 0 mm 5 mps 755 mmHg 68%
10:00 +25°C° 0 mm 5 mps 755 mmHg 64%
11:00 +26°C° 0 mm 5 mps 755 mmHg 60%
12:00 +26°C° 0 mm 4 mps 755 mmHg 56%
13:00 +27°C° 0 mm 5 mps 755 mmHg 54%
14:00 +27°C° 0 mm 5 mps 756 mmHg 53%
15:00 +28°C° 0 mm 5 mps 756 mmHg 51%
16:00 +27°C° 0 mm 5 mps 756 mmHg 51%
17:00 +27°C° 0 mm 5 mps 756 mmHg 51%
18:00 +27°C° 0 mm 5 mps 756 mmHg 51%
19:00 +26°C° 0 mm 4 mps 756 mmHg 55%
20:00 +23°C° 0 mm 4 mps 757 mmHg 59%
21:00 +22°C° 0 mm 3 mps 757 mmHg 63%
22:00 +21°C° 0 mm 3 mps 757 mmHg 65%
23:00 +20°C° 0 mm 3 mps 758 mmHg 68%

Tomorrow, 10 July, Friday

Time Temperature Precipitation Wind Pressure Humidity
00:00 +20°C° 0 mm 3 mps 758 mmHg 70%
01:00 +19°C° 0 mm 3 mps 758 mmHg 71%
02:00 +19°C° 0 mm 3 mps 758 mmHg 73%
03:00 +18°C° 0 mm 4 mps 758 mmHg 74%
04:00 +18°C° 0 mm 4 mps 759 mmHg 73%
05:00 +19°C° 0 mm 4 mps 759 mmHg 73%
06:00 +19°C° 0 mm 4 mps 759 mmHg 73%
07:00 +20°C° 0 mm 4 mps 759 mmHg 67%
08:00 +22°C° 0 mm 4 mps 759 mmHg 61%
09:00 +23°C° 0 mm 5 mps 760 mmHg 55%
10:00 +26°C° 0 mm 5 mps 760 mmHg 50%
11:00 +27°C° 0 mm 5 mps 760 mmHg 46%
12:00 +28°C° 0 mm 5 mps 759 mmHg 41%
13:00 +29°C° 0 mm 5 mps 759 mmHg 41%
14:00 +29°C° 0 mm 5 mps 759 mmHg 40%
15:00 +29°C° 0 mm 5 mps 759 mmHg 39%
16:00 +29°C° 0 mm 5 mps 759 mmHg 41%
17:00 +29°C° 0 mm 5 mps 759 mmHg 42%
18:00 +28°C° 0 mm 5 mps 759 mmHg 44%
19:00 +27°C° 0 mm 4 mps 759 mmHg 48%
20:00 +25°C° 0 mm 4 mps 759 mmHg 52%
21:00 +23°C° 0 mm 4 mps 759 mmHg 56%
22:00 +22°C° 0 mm 4 mps 759 mmHg 57%
23:00 +21°C° 0 mm 4 mps 759 mmHg 59%

Day after tomorrow, 11 July, Saturday

Time Temperature Precipitation Wind Pressure Humidity
00:00 +21°C° 0 mm 4 mps 760 mmHg 60%
01:00 +21°C° 0 mm 4 mps 760 mmHg 62%
02:00 +20°C° 0 mm 4 mps 760 mmHg 64%
03:00 +20°C° 0 mm 4 mps 760 mmHg 67%
04:00 +20°C° 0 mm 4 mps 760 mmHg 67%
05:00 +20°C° 0 mm 4 mps 760 mmHg 68%
06:00 +20°C° 0 mm 4 mps 759 mmHg 69%
07:00 +21°C° 0 mm 5 mps 759 mmHg 62%
08:00 +23°C° 0 mm 5 mps 760 mmHg 56%
09:00 +26°C° 0 mm 6 mps 760 mmHg 50%
10:00 +27°C° 0 mm 6 mps 759 mmHg 46%
11:00 +28°C° 0 mm 6 mps 759 mmHg 43%
12:00 +30°C° 0 mm 6 mps 759 mmHg 40%
13:00 +30°C° 0 mm 6 mps 758 mmHg 38%
14:00 +32°C° 0 mm 6 mps 758 mmHg 36%
15:00 +33°C° 0 mm 6 mps 758 mmHg 35%
16:00 +33°C° 0 mm 5 mps 757 mmHg 36%
17:00 +32°C° 0 mm 5 mps 757 mmHg 38%
18:00 +32°C° 0 mm 5 mps 757 mmHg 40%
19:00 +30°C° 0 mm 5 mps 757 mmHg 44%
20:00 +28°C° 0 mm 4 mps 756 mmHg 49%
21:00 +27°C° 0 mm 4 mps 756 mmHg 53%
22:00 +26°C° 0 mm 4 mps 756 mmHg 55%
23:00 +26°C° 0 mm 5 mps 756 mmHg 56%

12 July, Sunday

Time Temperature Precipitation Wind Pressure Humidity
00:00 +26°C° 0 mm 5 mps 756 mmHg 58%
01:00 +25°C° 0 mm 5 mps 756 mmHg 62%
02:00 +25°C° 0 mm 5 mps 755 mmHg 66%
03:00 +23°C° 0 mm 5 mps 755 mmHg 70%
04:00 +23°C° 0.1 mm 5 mps 755 mmHg 72%
05:00 +23°C° 0.1 mm 5 mps 755 mmHg 73%
06:00 +23°C° 0.1 mm 4 mps 755 mmHg 75%
07:00 +26°C° 0 mm 5 mps 754 mmHg 71%
08:00 +28°C° 0 mm 5 mps 754 mmHg 66%
09:00 +29°C° 0 mm 5 mps 754 mmHg 62%
10:00 +32°C° 0 mm 4 mps 754 mmHg 56%
11:00 +34°C° 0 mm 4 mps 754 mmHg 49%
12:00 +36°C° 0 mm 3 mps 754 mmHg 42%
13:00 +36°C° 0 mm 3 mps 754 mmHg 38%
14:00 +37°C° 0 mm 2 mps 753 mmHg 34%
15:00 +38°C° 0 mm 2 mps 753 mmHg 29%
16:00 +37°C° 0.1 mm 2 mps 753 mmHg 32%
17:00 +36°C° 0.1 mm 2 mps 752 mmHg 35%
18:00 +35°C° 0.1 mm 2 mps 752 mmHg 38%
19:00 +32°C° 0.8 mm 2 mps 752 mmHg 45%
20:00 +29°C° 0.8 mm 2 mps 752 mmHg 53%
21:00 +27°C° 0.8 mm 2 mps 752 mmHg 61%
22:00 +26°C° 0.5 mm 2 mps 752 mmHg 63%
23:00 +26°C° 0.5 mm 2 mps 752 mmHg 65%

13 July, Monday

Time Temperature Precipitation Wind Pressure Humidity
00:00 +26°C° 0.5 mm 1 mps 752 mmHg 67%
01:00 +25°C° 0.1 mm 2 mps 751 mmHg 70%
02:00 +24°C° 0.1 mm 2 mps 751 mmHg 73%
03:00 +24°C° 0.1 mm 3 mps 751 mmHg 76%
04:00 +24°C° 0.1 mm 2 mps 751 mmHg 76%
05:00 +24°C° 0.1 mm 2 mps 751 mmHg 75%
06:00 +24°C° 0.1 mm 2 mps 751 mmHg 74%
07:00 +26°C° 0 mm 2 mps 751 mmHg 67%
08:00 +27°C° 0 mm 2 mps 750 mmHg 60%
09:00 +29°C° 0 mm 2 mps 750 mmHg 53%
10:00 +31°C° 0 mm 3 mps 750 mmHg 47%
11:00 +33°C° 0 mm 3 mps 750 mmHg 42%
12:00 +35°C° 0 mm 3 mps 750 mmHg 36%
13:00 +35°C° 0 mm 3 mps 750 mmHg 36%
14:00 +35°C° 0 mm 3 mps 750 mmHg 35%
15:00 +35°C° 0 mm 3 mps 749 mmHg 35%
16:00 +35°C° 0 mm 4 mps 749 mmHg 37%
17:00 +34°C° 0 mm 4 mps 749 mmHg 39%
18:00 +33°C° 0 mm 5 mps 749 mmHg 40%
19:00 +32°C° 0 mm 4 mps 749 mmHg 46%
20:00 +29°C° 0 mm 4 mps 749 mmHg 51%
21:00 +27°C° 0 mm 3 mps 749 mmHg 56%
22:00 +26°C° 0 mm 3 mps 749 mmHg 60%
23:00 +26°C° 0 mm 2 mps 749 mmHg 64%

14 July, Tuesday

Time Temperature Precipitation Wind Pressure Humidity
00:00 +25°C° 0 mm 2 mps 749 mmHg 67%
01:00 +24°C° 0 mm 2 mps 749 mmHg 69%
02:00 +24°C° 0 mm 1 mps 749 mmHg 71%
03:00 +23°C° 0 mm 1 mps 749 mmHg 73%
04:00 +24°C° 0 mm 1 mps 749 mmHg 72%
05:00 +24°C° 0 mm 1 mps 749 mmHg 71%
06:00 +22°C° 0 mm 0 mps 749 mmHg 71%
07:00 +26°C° 0 mm 1 mps 750 mmHg 66%
08:00 +27°C° 0 mm 2 mps 750 mmHg 61%
09:00 +29°C° 0 mm 2 mps 750 mmHg 57%
10:00 +30°C° 0 mm 3 mps 750 mmHg 53%
11:00 +32°C° 0 mm 4 mps 750 mmHg 49%
12:00 +33°C° 0 mm 5 mps 750 mmHg 45%
13:00 +34°C° 0 mm 5 mps 750 mmHg 44%
14:00 +34°C° 0 mm 5 mps 750 mmHg 44%
15:00 +34°C° 0 mm 6 mps 750 mmHg 43%
16:00 +33°C° 0 mm 5 mps 751 mmHg 45%
17:00 +33°C° 0 mm 5 mps 751 mmHg 47%
18:00 +32°C° 0 mm 5 mps 751 mmHg 49%
19:00 +30°C° 0.1 mm 4 mps 751 mmHg 55%
20:00 +28°C° 0.1 mm 4 mps 752 mmHg 62%
21:00 +26°C° 0.1 mm 3 mps 752 mmHg 68%
22:00 +26°C° 0 mm 3 mps 752 mmHg 70%
23:00 +25°C° 0 mm 3 mps 753 mmHg 72%
Show more